• In Uzbekistan
  • List of Countries
  • For 7 days
  • Water Temperature
  • Satellite Maps
  • Weather Map
  • Weather Widgets
  • user-avatar
    Login

    Hourly Weather Jureczkowa

    Today, 21 February, Thursday

    Time Temperature Precipitation Wind Pressure Humidity
    00:00 +1°C° 0 mm 3 mps 724 mmHg 86%
    01:00 +1°C° 0 mm 3 mps 724 mmHg 87%
    02:00 +1°C° 0 mm 3 mps 724 mmHg 88%
    03:00 0°C° 0 mm 3 mps 724 mmHg 89%
    04:00 0°C° 0 mm 3 mps 724 mmHg 90%
    05:00 -1°C° 0 mm 3 mps 724 mmHg 92%
    06:00 -1°C° 0 mm 3 mps 724 mmHg 91%
    07:00 0°C° 0 mm 3 mps 725 mmHg 89%
    08:00 0°C° 0 mm 3 mps 725 mmHg 88%
    09:00 +1°C° 0 mm 3 mps 725 mmHg 84%
    10:00 +1°C° 0 mm 4 mps 725 mmHg 79%
    11:00 +3°C° 0 mm 4 mps 725 mmHg 75%
    12:00 +4°C° 0 mm 4 mps 725 mmHg 72%
    13:00 +5°C° 0 mm 4 mps 725 mmHg 70%
    14:00 +5°C° 0 mm 4 mps 725 mmHg 68%
    15:00 +5°C° 0 mm 4 mps 724 mmHg 69%
    16:00 +5°C° 0 mm 3 mps 724 mmHg 71%
    17:00 +4°C° 0 mm 3 mps 724 mmHg 72%
    18:00 +4°C° 0 mm 3 mps 724 mmHg 73%
    19:00 +3°C° 0 mm 4 mps 723 mmHg 74%
    20:00 +3°C° 0 mm 4 mps 723 mmHg 75%
    21:00 +3°C° 0.2 mm 4 mps 723 mmHg 77%
    22:00 +3°C° 0.2 mm 4 mps 723 mmHg 80%
    23:00 +3°C° 0.2 mm 4 mps 722 mmHg 82%

    Tomorrow, 22 February, Friday

    Time Temperature Precipitation Wind Pressure Humidity
    00:00 +3°C° 0.7 mm 4 mps 722 mmHg 83%
    01:00 +3°C° 0.7 mm 4 mps 722 mmHg 85%
    02:00 +1°C° 0.7 mm 4 mps 721 mmHg 86%
    03:00 +1°C° 0.5 mm 4 mps 721 mmHg 87%
    04:00 +1°C° 0.5 mm 4 mps 720 mmHg 89%
    05:00 +1°C° 0.5 mm 4 mps 720 mmHg 90%
    06:00 +1°C° 1.1 mm 4 mps 720 mmHg 91%
    07:00 +1°C° 1.1 mm 4 mps 720 mmHg 93%
    08:00 +2°C° 1.1 mm 3 mps 721 mmHg 95%
    09:00 -1°C° 0.9 mm 4 mps 721 mmHg 93%
    10:00 -4°C° 0.9 mm 5 mps 722 mmHg 92%
    11:00 -6°C° 0.9 mm 5 mps 723 mmHg 90%
    12:00 -6°C° 0.1 mm 5 mps 724 mmHg 85%
    13:00 -6°C° 0.1 mm 6 mps 725 mmHg 79%
    14:00 -5°C° 0.1 mm 6 mps 726 mmHg 74%
    15:00 -6°C° 0 mm 6 mps 727 mmHg 72%
    16:00 -6°C° 0 mm 6 mps 727 mmHg 70%
    17:00 -8°C° 0 mm 6 mps 728 mmHg 68%
    18:00 -8°C° 0 mm 5 mps 729 mmHg 69%
    19:00 -8°C° 0 mm 5 mps 729 mmHg 70%
    20:00 -10°C° 0 mm 5 mps 730 mmHg 71%
    21:00 -10°C° 0 mm 5 mps 731 mmHg 68%
    22:00 -11°C° 0 mm 5 mps 731 mmHg 66%
    23:00 -11°C° 0 mm 5 mps 732 mmHg 63%

    Day after tomorrow, 23 February, Saturday

    Time Temperature Precipitation Wind Pressure Humidity
    00:00 -10°C° 0 mm 4 mps 732 mmHg 62%
    01:00 -10°C° 0 mm 4 mps 733 mmHg 60%
    02:00 -10°C° 0 mm 4 mps 733 mmHg 59%
    03:00 -10°C° 0 mm 4 mps 733 mmHg 59%
    04:00 -10°C° 0 mm 4 mps 733 mmHg 60%
    05:00 -11°C° 0 mm 4 mps 733 mmHg 61%
    06:00 -11°C° 0 mm 4 mps 733 mmHg 62%
    07:00 -11°C° 0 mm 4 mps 734 mmHg 63%
    08:00 -11°C° 0 mm 4 mps 734 mmHg 64%
    09:00 -10°C° 0 mm 4 mps 734 mmHg 61%
    10:00 -10°C° 0 mm 4 mps 735 mmHg 57%
    11:00 -9°C° 0 mm 4 mps 735 mmHg 54%
    12:00 -8°C° 0 mm 4 mps 735 mmHg 52%
    13:00 -8°C° 0 mm 4 mps 735 mmHg 49%
    14:00 -7°C° 0 mm 4 mps 735 mmHg 47%
    15:00 -6°C° 0 mm 3 mps 735 mmHg 47%
    16:00 -6°C° 0 mm 3 mps 735 mmHg 47%
    17:00 -6°C° 0 mm 3 mps 735 mmHg 47%
    18:00 -7°C° 0 mm 3 mps 735 mmHg 51%
    19:00 -7°C° 0 mm 2 mps 735 mmHg 55%
    20:00 -6°C° 0 mm 1 mps 735 mmHg 58%
    21:00 -6°C° 0 mm 1 mps 735 mmHg 60%
    22:00 -7°C° 0 mm 1 mps 735 mmHg 61%
    23:00 -7°C° 0 mm 1 mps 735 mmHg 62%

    24 February, Sunday

    Time Temperature Precipitation Wind Pressure Humidity
    00:00 -7°C° 0 mm 1 mps 735 mmHg 62%
    01:00 -7°C° 0 mm 1 mps 735 mmHg 63%
    02:00 -7°C° 0 mm 1 mps 735 mmHg 63%
    03:00 -7°C° 0 mm 1 mps 734 mmHg 63%
    04:00 -7°C° 0 mm 1 mps 734 mmHg 62%
    05:00 -7°C° 0 mm 1 mps 734 mmHg 62%
    06:00 -7°C° 0 mm 1 mps 734 mmHg 60%
    07:00 -7°C° 0 mm 1 mps 734 mmHg 59%
    08:00 -7°C° 0 mm 1 mps 734 mmHg 57%
    09:00 -4°C° 0 mm 1 mps 734 mmHg 51%
    10:00 -5°C° 0 mm 2 mps 734 mmHg 45%
    11:00 -3°C° 0 mm 2 mps 734 mmHg 38%
    12:00 -2°C° 0 mm 2 mps 733 mmHg 39%
    13:00 -1°C° 0 mm 2 mps 733 mmHg 40%
    14:00 +1°C° 0 mm 2 mps 732 mmHg 41%
    15:00 +1°C° 0 mm 2 mps 732 mmHg 43%
    16:00 +1°C° 0 mm 2 mps 731 mmHg 46%
    17:00 +1°C° 0 mm 2 mps 731 mmHg 48%
    18:00 -1°C° 0 mm 3 mps 731 mmHg 50%
    19:00 -1°C° 0 mm 3 mps 731 mmHg 53%
    20:00 -1°C° 0 mm 3 mps 731 mmHg 55%
    21:00 -1°C° 0.1 mm 3 mps 730 mmHg 58%
    22:00 -1°C° 0.1 mm 3 mps 730 mmHg 62%
    23:00 -1°C° 0.1 mm 3 mps 730 mmHg 65%

    25 February, Monday

    Time Temperature Precipitation Wind Pressure Humidity
    00:00 -2°C° 0 mm 4 mps 729 mmHg 69%
    01:00 -3°C° 0 mm 4 mps 729 mmHg 73%
    02:00 -3°C° 0 mm 4 mps 728 mmHg 77%
    03:00 -2°C° 0.1 mm 4 mps 728 mmHg 81%
    04:00 -2°C° 0.1 mm 5 mps 728 mmHg 86%
    05:00 -2°C° 0.1 mm 5 mps 727 mmHg 91%
    06:00 -2°C° 0.1 mm 5 mps 727 mmHg 91%
    07:00 -2°C° 0.1 mm 5 mps 728 mmHg 91%
    08:00 -2°C° 0.1 mm 5 mps 728 mmHg 92%
    09:00 -2°C° 0.1 mm 5 mps 727 mmHg 89%
    10:00 -3°C° 0.1 mm 6 mps 727 mmHg 86%
    11:00 -3°C° 0.1 mm 7 mps 727 mmHg 83%
    12:00 -2°C° 0.1 mm 7 mps 727 mmHg 79%
    13:00 -2°C° 0.1 mm 7 mps 727 mmHg 76%
    14:00 -1°C° 0.1 mm 7 mps 727 mmHg 73%
    15:00 -1°C° 0 mm 7 mps 727 mmHg 71%
    16:00 -1°C° 0 mm 6 mps 727 mmHg 69%
    17:00 -2°C° 0 mm 6 mps 726 mmHg 67%
    18:00 -2°C° 0.1 mm 6 mps 727 mmHg 71%
    19:00 -3°C° 0.1 mm 6 mps 727 mmHg 74%
    20:00 -2°C° 0.1 mm 5 mps 727 mmHg 78%
    21:00 -2°C° 0.1 mm 5 mps 728 mmHg 79%
    22:00 -4°C° 0.1 mm 5 mps 728 mmHg 80%
    23:00 -4°C° 0.1 mm 5 mps 728 mmHg 81%

    26 February, Tuesday

    Time Temperature Precipitation Wind Pressure Humidity
    00:00 -4°C° 0 mm 5 mps 728 mmHg 85%
    01:00 -4°C° 0 mm 4 mps 728 mmHg 88%
    02:00 -4°C° 0 mm 4 mps 728 mmHg 92%
    03:00 -4°C° 0 mm 4 mps 727 mmHg 92%
    04:00 -4°C° 0 mm 4 mps 727 mmHg 93%
    05:00 -4°C° 0 mm 4 mps 727 mmHg 93%
    06:00 -4°C° 0 mm 4 mps 727 mmHg 92%
    07:00 -4°C° 0 mm 4 mps 727 mmHg 92%
    08:00 -4°C° 0 mm 4 mps 727 mmHg 91%
    09:00 -3°C° 0 mm 4 mps 727 mmHg 89%
    10:00 -1°C° 0 mm 3 mps 727 mmHg 87%
    11:00 -1°C° 0 mm 3 mps 727 mmHg 85%
    12:00 0°C° 0 mm 3 mps 727 mmHg 82%
    13:00 +1°C° 0 mm 3 mps 726 mmHg 80%
    14:00 +2°C° 0 mm 3 mps 726 mmHg 77%
    15:00 +2°C° 0 mm 3 mps 726 mmHg 77%
    16:00 +3°C° 0 mm 2 mps 725 mmHg 78%
    17:00 +3°C° 0 mm 2 mps 725 mmHg 78%
    18:00 +2°C° 0 mm 2 mps 725 mmHg 80%
    19:00 -1°C° 0 mm 2 mps 725 mmHg 82%
    20:00 -2°C° 0 mm 2 mps 725 mmHg 83%
    21:00 -2°C° 0 mm 2 mps 725 mmHg 84%
    22:00 -2°C° 0 mm 2 mps 725 mmHg 84%
    23:00 -2°C° 0 mm 2 mps 724 mmHg 85%
    Show more